{"data":{"norad_id":53869,"intl_designator":"2022-114BD","name":"STARLINK-4810","alt_names":[],"object_type":"PAYLOAD","status":"ACTIVE","operator":null,"country":"US","launch_date":"2022-09-19","launch_site_code":"AFETR","launch_vehicle":null,"mission":null,"orbit_class":"UNKNOWN","rcs_meters":null,"size_class":null,"mass_kg":null,"dimensions":null,"purposes":["comms"],"wikipedia_slug":null,"has_3d_model":false,"image_url":null,"decayed_at":null,"tle_current":{"epoch":"2026-09-20T22:39:00.304992Z","epoch_age_seconds":45732,"freshness":"FRESH","line1":"1 53869U 22114BD  26263.94375353  .00000867  00000+0  39698-4 0  9998","line2":"2 53869  53.1589 103.9711 0001219  91.3559 268.7582 15.31696919222915","mean_motion":15.31696919,"eccentricity":0.0001219,"inclination_deg":53.1589,"raan_deg":103.9711,"arg_perigee_deg":91.3559,"mean_anomaly_deg":268.7582,"bstar":3.9698e-5,"rev_number":22291,"period_min":94.013377068104,"perigee_km":469.91430031643,"apogee_km":471.58405876701,"semimajor_km":6848.8861795417,"source":"CELESTRAK","updated_at":"2026-09-21T09:00:33.026766Z"}}}